| time (UTC) | temp C | wind direction | speed KPH | gust KPH | rain 1hr cm | rain 24hr cm | rain mn cm | humidity % | barometer mb |
| 20260903043656 | 25 | 284 | 0.0 | 0.0 | 0.00 | 0.03 | 0.00 | 89 | 1011.9 |
| 20260903042655 | 26 | 284 | 0.0 | 1.6 | 0.00 | 0.03 | 0.00 | 88 | 1011.9 |
| 20260903041653 | 26 | 280 | 0.0 | 9.7 | 0.00 | 0.03 | 0.00 | 88 | 1011.5 |
| 20260903040620 | 26 | 259 | 9.7 | 9.7 | 0.00 | 0.03 | 0.00 | 88 | 1011.5 |
| 20260903035618 | 26 | 265 | 1.6 | 4.8 | 0.00 | 0.03 | 0.03 | 88 | 1011.2 |
| 20260903034545 | 26 | 258 | 3.2 | 4.8 | 0.00 | 0.03 | 0.03 | 87 | 1011.2 |
| 20260903033543 | 26 | 256 | 1.6 | 4.8 | 0.00 | 0.03 | 0.03 | 87 | 1011.2 |
| 20260903032542 | 26 | 271 | 3.2 | 4.8 | 0.00 | 0.03 | 0.03 | 87 | 1011.2 |
| 20260903031541 | 26 | 249 | 3.2 | 3.2 | 0.00 | 0.03 | 0.03 | 87 | 1010.8 |
| 20260903030539 | 26 | 227 | 0.0 | 0.0 | 0.00 | 0.03 | 0.03 | 87 | 1011.2 |
| 20260903025538 | 26 | 242 | 0.0 | 0.0 | 0.00 | 0.03 | 0.03 | 87 | 1011.2 |
| 20260903024537 | 26 | 242 | 0.0 | 0.0 | 0.00 | 0.03 | 0.03 | 86 | 1011.5 |
| 20260903023535 | 26 | 240 | 0.0 | 0.0 | 0.00 | 0.03 | 0.03 | 86 | 1011.5 |
| 20260903022503 | 27 | 238 | 0.0 | 0.0 | 0.00 | 0.03 | 0.03 | 85 | 1011.9 |
| 20260903021501 | 27 | 238 | 0.0 | 3.2 | 0.00 | 0.03 | 0.03 | 84 | 1011.9 |
| 20260903020427 | 27 | 217 | 1.6 | 3.2 | 0.00 | 0.03 | 0.03 | 84 | 1011.5 |
| 20260903015420 | 27 | 214 | 1.6 | 1.6 | 0.00 | 0.03 | 0.03 | 84 | 1011.5 |
| 20260903014417 | 27 | 208 | 1.6 | 1.6 | 0.00 | 0.03 | 0.03 | 84 | 1011.5 |
| 20260903013415 | 27 | 228 | 1.6 | 3.2 | 0.00 | 0.03 | 0.03 | 84 | 1011.5 |
| 20260903012410 | 27 | 224 | 1.6 | 3.2 | 0.00 | 0.03 | 0.03 | 84 | 1011.5 |
| 20260903011334 | 27 | 217 | 1.6 | 3.2 | 0.00 | 0.03 | 0.03 | 84 | 1011.2 |
| 20260903010332 | 27 | 222 | 1.6 | 3.2 | 0.00 | 0.03 | 0.03 | 83 | 1011.2 |
| 20260903005329 | 28 | 209 | 1.6 | 3.2 | 0.00 | 0.03 | 0.03 | 82 | 1011.2 |
| 20260903004327 | 28 | 211 | 0.0 | 1.6 | 0.00 | 0.03 | 0.03 | 81 | 1011.2 |
| 20260903003325 | 28 | 214 | 0.0 | 1.6 | 0.00 | 0.03 | 0.03 | 79 | 1011.2 |
| 20260903002251 | 29 | 218 | 1.6 | 3.2 | 0.00 | 0.03 | 0.03 | 78 | 1011.2 |
| 20260903001218 | 30 | 224 | 1.6 | 3.2 | 0.00 | 0.03 | 0.03 | 77 | 1011.2 |
| 20260903000145 | 30 | 214 | 1.6 | 1.6 | 0.00 | 0.03 | 0.03 | 75 | 1011.2 |
| 20260902235144 | 30 | 232 | 0.0 | 4.8 | 0.00 | 0.03 | 0.03 | 74 | 1011.2 |
| 20260902234143 | 31 | 242 | 1.6 | 4.8 | 0.00 | 0.03 | 0.03 | 72 | 1011.2 |
| 20260902233142 | 31 | 234 | 1.6 | 4.8 | 0.00 | 0.03 | 0.03 | 71 | 1011.2 |
| 20260902232108 | 31 | 235 | 0.0 | 4.8 | 0.00 | 0.03 | 0.03 | 70 | 1011.2 |
| 20260902231107 | 32 | 245 | 1.6 | 6.4 | 0.00 | 0.05 | 0.03 | 69 | 1011.5 |
| 20260902230106 | 32 | 237 | 3.2 | 6.4 | 0.00 | 0.05 | 0.03 | 67 | 1011.2 |
| 20260902225105 | 32 | 225 | 3.2 | 6.4 | 0.00 | 0.05 | 0.03 | 66 | 1011.2 |
| 20260902224104 | 32 | 232 | 1.6 | 8.0 | 0.00 | 0.05 | 0.03 | 65 | 1011.2 |
| 20260902223103 | 32 | 222 | 3.2 | 8.0 | 0.00 | 0.05 | 0.03 | 65 | 1011.5 |
| 20260902222102 | 32 | 240 | 3.2 | 8.0 | 0.00 | 0.05 | 0.03 | 65 | 1011.5 |
| 20260902221057 | 33 | 224 | 3.2 | 11.3 | 0.00 | 0.05 | 0.03 | 64 | 1011.5 |
| 20260902220055 | 33 | 232 | 4.8 | 11.3 | 0.00 | 0.10 | 0.03 | 62 | 1011.5 |
| 20260902215054 | 33 | 221 | 4.8 | 8.0 | 0.00 | 0.13 | 0.03 | 61 | 1011.5 |
| 20260902214053 | 33 | 238 | 3.2 | 6.4 | 0.00 | 0.15 | 0.03 | 62 | 1011.5 |
| 20260902213051 | 33 | 208 | 3.2 | 8.0 | 0.00 | 0.18 | 0.03 | 63 | 1011.9 |
| 20260902212017 | 32 | 221 | 3.2 | 8.0 | 0.00 | 0.20 | 0.03 | 63 | 1011.9 |
| 20260902210945 | 32 | 254 | 1.6 | 6.4 | 0.00 | 0.20 | 0.03 | 64 | 1011.9 |
| 20260902205944 | 32 | 240 | 0.0 | 6.4 | 0.00 | 0.20 | 0.03 | 62 | 1011.9 |
| 20260902204942 | 33 | 229 | 1.6 | 12.9 | 0.00 | 0.23 | 0.03 | 62 | 1011.9 |
| 20260902203909 | 33 | 236 | 1.6 | 12.9 | 0.00 | 0.23 | 0.03 | 60 | 1012.2 |
| 20260902202907 | 33 | 249 | 4.8 | 14.5 | 0.00 | 0.23 | 0.03 | 57 | 1011.9 |
| 20260902201906 | 33 | 259 | 4.8 | 11.3 | 0.00 | 0.23 | 0.03 | 58 | 1012.2 |
| 20260902200904 | 34 | 248 | 3.2 | 14.5 | 0.00 | 0.25 | 0.03 | 57 | 1012.2 |
| 20260902195903 | 34 | 257 | 4.8 | 14.5 | 0.00 | 0.28 | 0.03 | 56 | 1012.2 |
| 20260902194829 | 34 | 243 | 3.2 | 11.3 | 0.00 | 0.30 | 0.03 | 56 | 1012.5 |
| 20260902193828 | 34 | 237 | 3.2 | 11.3 | 0.00 | 0.30 | 0.03 | 56 | 1012.5 |
| 20260902192827 | 34 | 232 | 3.2 | 11.3 | 0.00 | 0.30 | 0.03 | 59 | 1012.9 |
| 20260902191826 | 34 | 243 | 4.8 | 14.5 | 0.00 | 0.30 | 0.03 | 58 | 1012.9 |
| 20260902190824 | 34 | 240 | 3.2 | 14.5 | 0.00 | 0.30 | 0.03 | 59 | 1012.9 |
| 20260902185751 | 34 | 255 | 6.4 | 12.9 | 0.00 | 0.30 | 0.03 | 60 | 1012.9 |
| 20260902184749 | 33 | 252 | 3.2 | 14.5 | 0.00 | 0.30 | 0.03 | 59 | 1013.2 |
| 20260902183748 | 33 | 257 | 4.8 | 12.9 | 0.00 | 0.30 | 0.03 | 59 | 1013.2 |
| 20260902182747 | 33 | 252 | 4.8 | 9.7 | 0.00 | 0.30 | 0.03 | 61 | 1013.2 |
| 20260902181746 | 33 | 244 | 3.2 | 6.4 | 0.00 | 0.30 | 0.03 | 61 | 1013.2 |
| 20260902180744 | 33 | 222 | 3.2 | 8.0 | 0.00 | 0.30 | 0.03 | 61 | 1013.2 |
| 20260902175640 | 33 | 250 | 4.8 | 11.3 | 0.00 | 0.30 | 0.03 | 63 | 1013.5 |
| 20260902174639 | 33 | 236 | 4.8 | 11.3 | 0.00 | 0.30 | 0.03 | 61 | 1013.5 |
| 20260902173637 | 33 | 244 | 3.2 | 8.0 | 0.00 | 0.30 | 0.03 | 62 | 1013.5 |
| 20260902172533 | 33 | 229 | 1.6 | 9.7 | 0.00 | 0.30 | 0.03 | 64 | 1013.5 |
| 20260902171532 | 32 | 258 | 4.8 | 9.7 | 0.00 | 0.30 | 0.03 | 65 | 1013.9 |
| 20260902170459 | 33 | 259 | 3.2 | 12.9 | 0.00 | 0.30 | 0.03 | 66 | 1013.5 |
| 20260902165425 | 32 | 269 | 4.8 | 12.9 | 0.00 | 0.30 | 0.03 | 65 | 1013.9 |
| 20260902164424 | 32 | 266 | 3.2 | 9.7 | 0.00 | 0.30 | 0.03 | 67 | 1013.9 |
| 20260902163422 | 32 | 264 | 3.2 | 9.7 | 0.00 | 0.30 | 0.03 | 68 | 1013.9 |
| 20260902162421 | 32 | 270 | 3.2 | 9.7 | 0.00 | 0.30 | 0.03 | 68 | 1014.2 |
| 20260902161349 | 31 | 266 | 3.2 | 9.7 | 0.00 | 0.30 | 0.03 | 71 | 1014.2 |
| 20260902160347 | 31 | 249 | 1.6 | 9.7 | 0.00 | 0.30 | 0.03 | 75 | 1014.2 |
| 20260902155345 | 31 | 249 | 1.6 | 8.0 | 0.00 | 0.30 | 0.03 | 75 | 1014.2 |
| 20260902154241 | 30 | 257 | 0.0 | 6.4 | 0.00 | 0.30 | 0.03 | 78 | 1014.2 |
| 20260902153239 | 30 | 261 | 3.2 | 6.4 | 0.00 | 0.30 | 0.03 | 78 | 1014.2 |
| 20260902152237 | 29 | 262 | 3.2 | 8.0 | 0.00 | 0.30 | 0.03 | 78 | 1014.2 |
| 20260902151236 | 29 | 265 | 3.2 | 8.0 | 0.00 | 0.30 | 0.03 | 80 | 1014.2 |
| 20260902150235 | 29 | 262 | 1.6 | 6.4 | 0.00 | 0.30 | 0.03 | 80 | 1014.2 |
| 20260902145233 | 28 | 264 | 1.6 | 9.7 | 0.00 | 0.30 | 0.03 | 82 | 1014.2 |
| 20260902144159 | 28 | 263 | 4.8 | 9.7 | 0.00 | 0.30 | 0.03 | 82 | 1013.9 |
| 20260902143158 | 28 | 268 | 1.6 | 8.0 | 0.00 | 0.30 | 0.03 | 84 | 1013.9 |
| 20260902142155 | 27 | 266 | 3.2 | 8.0 | 0.00 | 0.30 | 0.03 | 84 | 1013.9 |
| 20260902141153 | 27 | 259 | 4.8 | 9.7 | 0.00 | 0.30 | 0.03 | 85 | 1013.9 |
| 20260902140152 | 27 | 263 | 4.8 | 9.7 | 0.00 | 0.30 | 0.03 | 85 | 1013.9 |
| 20260902135119 | 26 | 262 | 1.6 | 9.7 | 0.00 | 0.30 | 0.03 | 88 | 1013.9 |
| 20260902134117 | 26 | 266 | 6.4 | 9.7 | 0.00 | 0.30 | 0.03 | 88 | 1013.9 |
| 20260902133116 | 26 | 267 | 3.2 | 8.0 | 0.00 | 0.30 | 0.03 | 90 | 1013.9 |
| 20260902132114 | 25 | 266 | 4.8 | 8.0 | 0.00 | 0.30 | 0.03 | 91 | 1014.2 |
| 20260902131113 | 25 | 267 | 1.6 | 3.2 | 0.00 | 0.30 | 0.03 | 92 | 1014.2 |
| 20260902130111 | 25 | 264 | 1.6 | 3.2 | 0.00 | 0.30 | 0.03 | 91 | 1014.2 |
| 20260902125039 | 24 | 256 | 1.6 | 3.2 | 0.00 | 0.30 | 0.03 | 88 | 1014.2 |
| 20260902123934 | 24 | 217 | 0.0 | 0.0 | 0.00 | 0.30 | 0.03 | 86 | 1014.2 |
| 20260902122933 | 23 | 212 | 0.0 | 1.6 | 0.00 | 0.30 | 0.03 | 86 | 1014.2 |
| 20260902121900 | 23 | 220 | 0.0 | 1.6 | 0.00 | 0.30 | 0.03 | 85 | 1014.2 |
| 20260902120858 | 23 | 141 | 0.0 | 0.0 | 0.00 | 0.30 | 0.03 | 85 | 1014.2 |
| 20260902115856 | 22 | 141 | 0.0 | 0.0 | 0.00 | 0.30 | 0.03 | 85 | 1014.2 |
| 20260902114855 | 22 | 161 | 0.0 | 0.0 | 0.00 | 0.30 | 0.03 | 86 | 1013.9 |
| 20260902113853 | 22 | 161 | 0.0 | 0.0 | 0.00 | 0.30 | 0.03 | 86 | 1014.2 |
| 20260902112852 | 22 | 176 | 0.0 | 0.0 | 0.00 | 0.30 | 0.03 | 86 | 1014.2 |
| 20260902111850 | 22 | 176 | 0.0 | 0.0 | 0.00 | 0.30 | 0.03 | 86 | 1014.2 |
| 20260902110817 | 22 | 176 | 0.0 | 0.0 | 0.00 | 0.30 | 0.03 | 86 | 1014.2 |
| 20260902105815 | 22 | 176 | 0.0 | 0.0 | 0.00 | 0.30 | 0.03 | 87 | 1014.2 |
| 20260902104815 | 22 | 176 | 0.0 | 0.0 | 0.00 | 0.30 | 0.03 | 88 | 1013.9 |
| 20260902103743 | 22 | 176 | 0.0 | 0.0 | 0.00 | 0.30 | 0.03 | 87 | 1013.9 |
| 20260902102741 | 22 | 176 | 0.0 | 0.0 | 0.00 | 0.30 | 0.03 | 87 | 1013.9 |
| 20260902101739 | 22 | 176 | 0.0 | 0.0 | 0.00 | 0.30 | 0.03 | 88 | 1013.9 |
| 20260902100738 | 22 | 176 | 0.0 | 0.0 | 0.00 | 0.30 | 0.03 | 88 | 1013.9 |
| 20260902095705 | 22 | 176 | 0.0 | 0.0 | 0.00 | 0.30 | 0.03 | 87 | 1013.9 |
| 20260902094704 | 22 | 176 | 0.0 | 0.0 | 0.00 | 0.30 | 0.03 | 87 | 1013.9 |
| 20260902093702 | 22 | 176 | 0.0 | 0.0 | 0.00 | 0.30 | 0.03 | 88 | 1013.5 |
| 20260902092701 | 22 | 158 | 0.0 | 0.0 | 0.00 | 0.30 | 0.03 | 88 | 1013.5 |
| 20260902091659 | 22 | 195 | 0.0 | 0.0 | 0.00 | 0.30 | 0.03 | 87 | 1013.5 |
| 20260902090658 | 22 | 195 | 0.0 | 0.0 | 0.00 | 0.30 | 0.03 | 88 | 1013.5 |
| 20260902085656 | 22 | 205 | 0.0 | 0.0 | 0.00 | 0.30 | 0.03 | 89 | 1013.5 |
| 20260902084655 | 22 | 181 | 0.0 | 0.0 | 0.00 | 0.30 | 0.03 | 87 | 1013.5 |
| 20260902083653 | 22 | 216 | 0.0 | 0.0 | 0.00 | 0.30 | 0.03 | 88 | 1013.5 |
| 20260902082651 | 22 | 223 | 0.0 | 0.0 | 0.00 | 0.30 | 0.03 | 90 | 1013.5 |
| 20260902081650 | 22 | 223 | 0.0 | 0.0 | 0.03 | 0.30 | 0.03 | 89 | 1013.5 |
| 20260902080649 | 23 | 223 | 0.0 | 0.0 | 0.03 | 0.30 | 0.03 | 89 | 1013.5 |
| 20260902075648 | 23 | 223 | 0.0 | 0.0 | 0.03 | 0.30 | 0.03 | 88 | 1013.5 |
| 20260902074646 | 23 | 223 | 0.0 | 0.0 | 0.03 | 0.30 | 0.03 | 90 | 1013.5 |
| 20260902073612 | 23 | 223 | 0.0 | 0.0 | 0.03 | 0.30 | 0.03 | 90 | 1013.2 |
| 20260902072611 | 23 | 223 | 0.0 | 0.0 | 0.00 | 0.28 | 0.00 | 90 | 1013.2 |
| 20260902071610 | 23 | 223 | 0.0 | 0.0 | 0.00 | 0.28 | 0.00 | 89 | 1013.2 |
| 20260902070608 | 23 | 223 | 0.0 | 0.0 | 0.00 | 0.28 | 0.00 | 89 | 1012.9 |
| 20260902065607 | 23 | 223 | 0.0 | 0.0 | 0.00 | 0.28 | 0.00 | 90 | 1012.9 |
| 20260902064534 | 23 | 223 | 0.0 | 0.0 | 0.00 | 0.28 | 0.00 | 89 | 1012.9 |
| 20260902063533 | 24 | 223 | 0.0 | 0.0 | 0.00 | 0.28 | 0.00 | 88 | 1012.9 |
| 20260902062531 | 23 | 217 | 0.0 | 0.0 | 0.00 | 0.28 | 0.00 | 88 | 1013.2 |
| 20260902061530 | 23 | 297 | 0.0 | 0.0 | 0.00 | 0.28 | 0.00 | 88 | 1013.2 |
| 20260902060456 | 23 | 297 | 0.0 | 0.0 | 0.00 | 0.28 | 0.00 | 89 | 1013.2 |
| 20260902055455 | 23 | 297 | 0.0 | 0.0 | 0.00 | 0.28 | 0.00 | 89 | 1013.5 |
| 20260902054453 | 23 | 297 | 0.0 | 0.0 | 0.00 | 0.28 | 0.00 | 90 | 1013.5 |
| 20260902053452 | 23 | 297 | 0.0 | 0.0 | 0.00 | 0.28 | 0.00 | 91 | 1013.5 |
| 20260902052450 | 23 | 297 | 0.0 | 0.0 | 0.00 | 0.28 | 0.00 | 91 | 1013.5 |
| 20260902051449 | 24 | 297 | 0.0 | 0.0 | 0.00 | 0.28 | 0.00 | 91 | 1013.5 |
| 20260902050447 | 24 | 297 | 0.0 | 0.0 | 0.00 | 0.28 | 0.00 | 91 | 1013.5 |
| 20260902045446 | 24 | 297 | 0.0 | 0.0 | 0.00 | 0.28 | 0.00 | 91 | 1013.5 |
| 20260902044444 | 25 | 297 | 0.0 | 0.0 | 0.00 | 0.28 | 0.00 | 91 | 1013.5 |